Location: Cabo di Oristano
(39.8500°N, 8.4333°E)
Time: 17:10:22
(UTC+00:00)

Cosmos 2219 Rocket - Pass Details

Date: 31 January 2023
Orbit: 826 x 848 km, 71.0° (Epoch: 30 March)

Event Time Altitude Azimuth Distance (km) Brightness Sun altitude
Exits shadow 05:45:10 - 330° (NNW) 3,262 4.8 -10.0°
Reaches altitude 10° 05:47:19 10° 326° (NW) 2,460 4.2 -9.6°
Maximum altitude 05:52:42 48° 253° (WSW) 1,091 2.5 -8.6°
Drops below altitude 10° 05:58:06 10° 180° (S) 2,457 4.8 -7.7°
Sets 06:00:37 0° 175° (S) 3,390 5.6 -7.2°
